Home   Weather   Taipei   Past weeks

Flag for Taiwan Past Weather in Taipei, Taiwan — Yesterday and Last 2 Weeks

Now
75 °F

Scattered clouds.


Feels Like: 77 °F
Forecast: 68 / 73 °F
Wind: 2 mph from North

Location: Sungshan / Taipei

Current Time: Dec 4, 2016 at 10:09:50 am

Latest Report: Dec 4, 2016 at 9:00 am


Visibility: N/A

Pressure: 30.09 "Hg

Humidity: 69%

Dew Point: 64 °F

Location of TaipeiLocation

Past Weather in Taipei — Graph

°F

Taipei Temperature Yesterday

Maximum temperature yesterday: 73 °F (at 9:30 am)
Minimum temperature yesterday: 66 °F (at 12:00 am)
Average temperature yesterday: 72 °F

High & Low Weather Summary for the Past Weeks

 TemperatureHumidityPressure
High86 °F (Nov 19, 12:00 pm)88% (Nov 20, 8:00 pm)30.30 "Hg (Nov 20, 8:00 pm)
Low63 °F (Nov 24, 5:00 am)40% (Nov 19, 1:00 pm)29.89 "Hg (Nov 21, 1:52 pm)
Average71 °F74%30.10 "Hg
* Reported Nov 19 9:00 am — Dec 4 9:00 am, Taipei, Weather by CustomWeather, © 2016

Note: Actual official high and low records may vary slightly from our data, if they occured in-between our weather recording intervals... More about our weather records

Advertising

Taipei Weather History for the Previous 24 Hours

Scroll right to see more
 ConditionsComfort  
Time TempWeatherWind HumidityBarometerVisibility
9:00 am
Sun, Dec 4
75 °FScattered clouds.2 mph69%30.09 "HgN/A
8:30 am75 °FPassing clouds.2 mph74%30.09 "HgN/A
8:00 am73 °FPassing clouds.2 mph74%30.09 "HgN/A
7:30 am72 °FPartly sunny.2 mph83%30.07 "HgN/A
7:00 am70 °FPartly sunny.2 mph88%30.07 "HgN/A
6:30 am70 °FPartly sunny.1 mph83%30.07 "HgN/A
6:00 am72 °FPassing clouds.2 mph78%30.07 "Hg6 mi
5:00 am72 °FLight rain. Passing clouds.5 mph78%30.07 "Hg5 mi
4:00 am72 °FPassing clouds.No wind88%30.04 "Hg4 mi
3:00 am72 °FPassing clouds.2 mph88%30.04 "Hg4 mi
2:00 am72 °FPassing clouds.3 mph83%30.04 "Hg6 mi
1:00 am72 °FPassing clouds.9 mph83%30.07 "HgN/A
12:00 am73 °FPassing clouds.13 mph78%30.07 "HgN/A
11:30 pm
Sat, Dec 3
73 °FPassing clouds.13 mph78%30.07 "HgN/A
11:00 pm73 °FPassing clouds.13 mph78%30.07 "HgN/A
10:30 pm73 °FPassing clouds.14 mph78%30.07 "HgN/A
10:00 pm73 °FPassing clouds.15 mph78%30.07 "HgN/A
9:00 pm73 °FPassing clouds.15 mph78%30.07 "HgN/A
8:30 pm73 °FPassing clouds.14 mph78%30.09 "HgN/A
8:00 pm73 °FPassing clouds.13 mph78%30.09 "HgN/A
7:30 pm72 °FPartly cloudy.16 mph83%30.09 "HgN/A
7:00 pm72 °FPassing clouds.15 mph83%30.12 "HgN/A
6:30 pm72 °FPassing clouds.15 mph83%30.12 "HgN/A
6:00 pm72 °FPassing clouds.14 mph83%30.09 "Hg6 mi
5:30 pm73 °FPassing clouds.16 mph74%30.09 "HgN/A
5:00 pm73 °FPartly sunny.16 mph74%30.09 "HgN/A
4:30 pm73 °FBroken clouds.17 mph74%30.09 "HgN/A
4:00 pm73 °FBroken clouds.16 mph74%30.09 "HgN/A
3:30 pm73 °FBroken clouds.18 mph74%30.09 "HgN/A
3:00 pm73 °FPartly sunny.17 mph74%30.09 "HgN/A
2:30 pm73 °FPartly sunny.17 mph74%30.09 "HgN/A
2:00 pm72 °FPartly sunny.17 mph78%30.12 "HgN/A
1:30 pm73 °FPartly sunny.18 mph74%30.09 "HgN/A
1:00 pm73 °FPartly sunny.17 mph74%30.12 "HgN/A
12:30 pm73 °FPartly sunny.18 mph74%30.15 "HgN/A
12:00 pm73 °FPartly sunny.18 mph74%30.15 "HgN/A
11:30 am73 °FPartly sunny.16 mph74%30.18 "HgN/A
11:00 am73 °FBroken clouds.18 mph74%30.18 "HgN/A
10:30 am73 °FBroken clouds.16 mph74%30.18 "HgN/A
10:00 am73 °FScattered showers. Partly sunny.15 mph74%30.21 "HgN/A
Weather by CustomWeather, © 2016

See weather overviewHow to use our weather pages